Year,Month,Day,Hour,Minute,Value (Times are PST for temperature in C)
2015,06,22,00,00,15.00
2015,06,22,00,01,15.00
2015,06,22,00,02,15.00
2015,06,22,00,03,15.00
2015,06,22,00,04,15.00
2015,06,22,00,05,15.00
2015,06,22,00,06,15.00
2015,06,22,00,07,15.00
2015,06,22,00,08,15.00
2015,06,22,00,09,14.90
2015,06,22,00,10,14.90
2015,06,22,00,11,14.90
2015,06,22,00,12,15.00
2015,06,22,00,13,14.90
2015,06,22,00,14,14.90
2015,06,22,00,15,14.90
2015,06,22,00,16,14.80
2015,06,22,00,17,14.80
2015,06,22,00,18,14.80
2015,06,22,00,19,14.70
2015,06,22,00,20,14.70
2015,06,22,00,21,14.70
2015,06,22,00,22,14.60
2015,06,22,00,23,14.60
2015,06,22,00,24,14.60
2015,06,22,00,25,14.60
2015,06,22,00,26,14.60
2015,06,22,00,27,14.50
2015,06,22,00,28,14.50
2015,06,22,00,29,14.50
2015,06,22,00,30,14.80
2015,06,22,00,31,15.00
2015,06,22,00,32,15.00
2015,06,22,00,33,15.00
2015,06,22,00,34,15.10
2015,06,22,00,35,15.10
2015,06,22,00,36,15.00
2015,06,22,00,37,15.00
2015,06,22,00,38,15.20
2015,06,22,00,39,15.30
2015,06,22,00,40,15.30
2015,06,22,00,41,15.30
2015,06,22,00,42,15.30
2015,06,22,00,43,15.30
2015,06,22,00,44,15.30
2015,06,22,00,45,15.30
2015,06,22,00,46,15.30
2015,06,22,00,47,15.30
2015,06,22,00,48,15.40
2015,06,22,00,49,15.40
2015,06,22,00,50,15.40
2015,06,22,00,51,15.40
2015,06,22,00,52,15.40
2015,06,22,00,53,15.30
2015,06,22,00,54,15.30
2015,06,22,00,55,15.30
2015,06,22,00,56,15.20
2015,06,22,00,57,15.10
2015,06,22,00,58,15.00
2015,06,22,00,59,15.00
2015,06,22,01,00,15.00
2015,06,22,01,01,15.00
2015,06,22,01,02,15.00
2015,06,22,01,03,15.00
2015,06,22,01,04,14.90
2015,06,22,01,05,14.90
2015,06,22,01,06,14.80
2015,06,22,01,07,14.80
2015,06,22,01,08,14.70
2015,06,22,01,09,14.70
2015,06,22,01,10,14.70
2015,06,22,01,11,14.80
2015,06,22,01,12,14.90
2015,06,22,01,13,15.00
2015,06,22,01,14,15.00
2015,06,22,01,15,15.00
2015,06,22,01,16,15.00
2015,06,22,01,17,15.00
2015,06,22,01,18,15.00
2015,06,22,01,19,15.00
2015,06,22,01,20,15.00
2015,06,22,01,21,15.00
2015,06,22,01,22,15.00
2015,06,22,01,23,15.00
2015,06,22,01,24,15.00
2015,06,22,01,25,15.00
2015,06,22,01,26,14.90
2015,06,22,01,27,14.80
2015,06,22,01,28,14.70
2015,06,22,01,29,14.60
2015,06,22,01,30,14.60
2015,06,22,01,31,14.50
2015,06,22,01,32,14.50
2015,06,22,01,33,14.40
2015,06,22,01,34,14.40
2015,06,22,01,35,14.30
2015,06,22,01,36,14.30
2015,06,22,01,37,14.30
2015,06,22,01,38,14.30
2015,06,22,01,39,14.30
2015,06,22,01,40,14.30
2015,06,22,01,41,14.30
2015,06,22,01,42,14.30
2015,06,22,01,43,14.30
2015,06,22,01,44,14.30
2015,06,22,01,45,14.30
2015,06,22,01,46,14.40
2015,06,22,01,47,14.30
2015,06,22,01,48,14.40
2015,06,22,01,49,14.50
2015,06,22,01,50,14.50
2015,06,22,01,51,14.60
2015,06,22,01,52,14.60
2015,06,22,01,53,14.60
2015,06,22,01,54,14.50
2015,06,22,01,55,14.50
2015,06,22,01,56,14.50
2015,06,22,01,57,14.60
2015,06,22,01,58,14.70
2015,06,22,01,59,14.70
2015,06,22,02,00,14.70
2015,06,22,02,01,14.60
2015,06,22,02,02,14.60
2015,06,22,02,03,14.50
2015,06,22,02,04,14.40
2015,06,22,02,05,14.40
2015,06,22,02,06,14.30
2015,06,22,02,07,14.30
2015,06,22,02,08,14.20
2015,06,22,02,09,14.10
2015,06,22,02,10,14.10
2015,06,22,02,11,14.00
2015,06,22,02,12,14.00
2015,06,22,02,13,13.90
2015,06,22,02,14,13.90
2015,06,22,02,15,13.80
2015,06,22,02,16,13.80
2015,06,22,02,17,13.80
2015,06,22,02,18,13.80
2015,06,22,02,19,13.70
2015,06,22,02,20,13.70
2015,06,22,02,21,13.70
2015,06,22,02,22,13.80
2015,06,22,02,23,13.90
2015,06,22,02,24,14.00
2015,06,22,02,25,14.20
2015,06,22,02,26,14.40
2015,06,22,02,27,14.60
2015,06,22,02,28,15.00
2015,06,22,02,29,15.20
2015,06,22,02,30,15.60
2015,06,22,02,31,15.70
2015,06,22,02,32,15.80
2015,06,22,02,33,15.90
2015,06,22,02,34,15.90
2015,06,22,02,35,15.90
2015,06,22,02,36,15.90
2015,06,22,02,37,15.90
2015,06,22,02,38,15.90
2015,06,22,02,39,15.80
2015,06,22,02,40,15.80
2015,06,22,02,41,15.80
2015,06,22,02,42,15.80
2015,06,22,02,43,15.70
2015,06,22,02,44,15.60
2015,06,22,02,45,15.60
2015,06,22,02,46,15.50
2015,06,22,02,47,15.50
2015,06,22,02,48,15.40
2015,06,22,02,49,15.30
2015,06,22,02,50,15.20
2015,06,22,02,51,15.10
2015,06,22,02,52,15.00
2015,06,22,02,53,15.00
2015,06,22,02,54,14.90
2015,06,22,02,55,14.70
2015,06,22,02,56,14.60
2015,06,22,02,57,14.60
2015,06,22,02,58,14.50
2015,06,22,02,59,14.40
2015,06,22,03,00,14.40
2015,06,22,03,01,14.30
2015,06,22,03,02,14.20
2015,06,22,03,03,14.10
2015,06,22,03,04,14.10
2015,06,22,03,05,14.00
2015,06,22,03,06,13.90
2015,06,22,03,07,13.90
2015,06,22,03,08,13.80
2015,06,22,03,09,13.70
2015,06,22,03,10,13.70
2015,06,22,03,11,13.60
2015,06,22,03,12,13.50
2015,06,22,03,13,13.40
2015,06,22,03,14,13.40
2015,06,22,03,15,13.30
2015,06,22,03,16,13.20
2015,06,22,03,17,13.20
2015,06,22,03,18,13.20
2015,06,22,03,19,13.10
2015,06,22,03,20,13.10
2015,06,22,03,21,13.00
2015,06,22,03,22,13.00
2015,06,22,03,23,12.90
2015,06,22,03,24,12.90
2015,06,22,03,25,12.80
2015,06,22,03,26,12.80
2015,06,22,03,27,12.80
2015,06,22,03,28,12.70
2015,06,22,03,29,12.70
2015,06,22,03,30,12.70
2015,06,22,03,31,12.60
2015,06,22,03,32,12.60
2015,06,22,03,33,12.50
2015,06,22,03,34,12.50
2015,06,22,03,35,12.40
2015,06,22,03,36,12.40
2015,06,22,03,37,12.30
2015,06,22,03,38,12.30
2015,06,22,03,39,12.30
2015,06,22,03,40,12.20
2015,06,22,03,41,12.20
2015,06,22,03,42,12.20
2015,06,22,03,43,12.10
2015,06,22,03,44,12.10
2015,06,22,03,45,12.10
2015,06,22,03,46,12.00
2015,06,22,03,47,12.00
2015,06,22,03,48,12.00
2015,06,22,03,49,11.90
2015,06,22,03,50,11.90
2015,06,22,03,51,11.90
2015,06,22,03,52,11.80
2015,06,22,03,53,11.80
2015,06,22,03,54,11.80
2015,06,22,03,55,11.70
2015,06,22,03,56,11.70
2015,06,22,03,57,11.70
2015,06,22,03,58,11.60
2015,06,22,03,59,11.60
2015,06,22,04,00,11.60
2015,06,22,04,01,11.50
2015,06,22,04,02,11.50
2015,06,22,04,03,11.40
2015,06,22,04,04,11.40
2015,06,22,04,05,11.40
2015,06,22,04,06,11.40
2015,06,22,04,07,11.30
2015,06,22,04,08,11.30
2015,06,22,04,09,11.30
2015,06,22,04,10,11.20
2015,06,22,04,11,11.20
2015,06,22,04,12,11.20
2015,06,22,04,13,11.20
2015,06,22,04,14,11.10
2015,06,22,04,15,11.10
2015,06,22,04,16,11.10
2015,06,22,04,17,11.10
2015,06,22,04,18,11.00
2015,06,22,04,19,11.00
2015,06,22,04,20,11.00
2015,06,22,04,21,10.90
2015,06,22,04,22,10.90
2015,06,22,04,23,10.90
2015,06,22,04,24,10.80
2015,06,22,04,25,10.80
2015,06,22,04,26,10.80
2015,06,22,04,27,10.80
2015,06,22,04,28,10.80
2015,06,22,04,29,10.70
2015,06,22,04,30,10.70
2015,06,22,04,31,10.70
2015,06,22,04,32,10.70
2015,06,22,04,33,10.70
2015,06,22,04,34,10.60
2015,06,22,04,35,10.60
2015,06,22,04,36,10.60
2015,06,22,04,37,10.50
2015,06,22,04,38,10.50
2015,06,22,04,39,10.50
2015,06,22,04,40,10.40
2015,06,22,04,41,10.40
2015,06,22,04,42,10.40
2015,06,22,04,43,10.40
2015,06,22,04,44,10.40
2015,06,22,04,45,10.40
2015,06,22,04,46,10.30
2015,06,22,04,47,10.30
2015,06,22,04,48,10.30
2015,06,22,04,49,10.30
2015,06,22,04,50,10.30
2015,06,22,04,51,10.30
2015,06,22,04,52,10.20
2015,06,22,04,53,10.20
2015,06,22,04,54,10.20
2015,06,22,04,55,10.20
2015,06,22,04,56,10.20
2015,06,22,04,57,10.10
2015,06,22,04,58,10.10
2015,06,22,04,59,10.10
2015,06,22,05,00,10.10
2015,06,22,05,01,10.10
2015,06,22,05,02,10.10
2015,06,22,05,03,10.10
2015,06,22,05,04,10.00
2015,06,22,05,05,10.00
2015,06,22,05,06,10.00
2015,06,22,05,07,9.90
2015,06,22,05,08,9.90
2015,06,22,05,09,9.90
2015,06,22,05,10,9.90
2015,06,22,05,11,9.90
2015,06,22,05,12,9.80
2015,06,22,05,13,9.80
2015,06,22,05,14,9.80
2015,06,22,05,15,9.80
2015,06,22,05,16,9.80
2015,06,22,05,17,9.80
2015,06,22,05,18,9.80
2015,06,22,05,19,9.80
2015,06,22,05,20,9.70
2015,06,22,05,21,9.70
2015,06,22,05,22,9.70
2015,06,22,05,23,9.70
2015,06,22,05,24,9.70
2015,06,22,05,25,9.70
2015,06,22,05,26,9.70
2015,06,22,05,27,9.70
2015,06,22,05,28,9.70
2015,06,22,05,29,9.70
2015,06,22,05,30,9.70
2015,06,22,05,31,9.70
2015,06,22,05,32,9.70
2015,06,22,05,33,9.70
2015,06,22,05,34,9.70
2015,06,22,05,35,9.70
2015,06,22,05,36,9.70
2015,06,22,05,37,9.70
2015,06,22,05,38,9.70
2015,06,22,05,39,9.70
2015,06,22,05,40,9.70
2015,06,22,05,41,9.70
2015,06,22,05,42,9.70
2015,06,22,05,43,9.70
2015,06,22,05,44,9.70
2015,06,22,05,45,9.70
2015,06,22,05,46,9.70
2015,06,22,05,47,9.70
2015,06,22,05,48,9.70
2015,06,22,05,49,9.70
2015,06,22,05,50,9.70
2015,06,22,05,51,9.70
2015,06,22,05,52,9.70
2015,06,22,05,53,9.70
2015,06,22,05,54,9.70
2015,06,22,05,55,9.70
2015,06,22,05,56,9.70
2015,06,22,05,57,9.70
2015,06,22,05,58,9.70
2015,06,22,05,59,9.70
2015,06,22,06,00,9.70
2015,06,22,06,01,9.70
2015,06,22,06,02,9.70
2015,06,22,06,03,9.80
2015,06,22,06,04,9.80
2015,06,22,06,05,9.80
2015,06,22,06,06,9.80
2015,06,22,06,07,9.80
2015,06,22,06,08,9.90
2015,06,22,06,09,9.90
2015,06,22,06,10,9.90
2015,06,22,06,11,9.90
2015,06,22,06,12,10.00
2015,06,22,06,13,10.00
2015,06,22,06,14,10.10
2015,06,22,06,15,10.10
2015,06,22,06,16,10.20
2015,06,22,06,17,10.20
2015,06,22,06,18,10.20
2015,06,22,06,19,10.20
2015,06,22,06,20,10.30
2015,06,22,06,21,10.30
2015,06,22,06,22,10.30
2015,06,22,06,23,10.30
2015,06,22,06,24,10.40
2015,06,22,06,25,10.40
2015,06,22,06,26,10.40
2015,06,22,06,27,10.50
2015,06,22,06,28,10.50
2015,06,22,06,29,10.60
2015,06,22,06,30,10.60
2015,06,22,06,31,10.70
2015,06,22,06,32,10.70
2015,06,22,06,33,10.70
2015,06,22,06,34,10.80
2015,06,22,06,35,10.80
2015,06,22,06,36,10.80
2015,06,22,06,37,10.80
2015,06,22,06,38,10.80
2015,06,22,06,39,10.90
2015,06,22,06,40,10.90
2015,06,22,06,41,10.90
2015,06,22,06,42,10.90
2015,06,22,06,43,10.90
2015,06,22,06,44,10.90
2015,06,22,06,45,11.00
2015,06,22,06,46,11.00
2015,06,22,06,47,11.10
2015,06,22,06,48,11.10
2015,06,22,06,49,11.10
2015,06,22,06,50,11.10
2015,06,22,06,51,11.20
2015,06,22,06,52,11.20
2015,06,22,06,53,11.20
2015,06,22,06,54,11.30
2015,06,22,06,55,11.40
2015,06,22,06,56,11.60
2015,06,22,06,57,11.70
2015,06,22,06,58,11.70
2015,06,22,06,59,11.80
2015,06,22,07,00,12.00
2015,06,22,07,01,12.10
2015,06,22,07,02,12.10
2015,06,22,07,03,12.20
2015,06,22,07,04,12.20
2015,06,22,07,05,12.30
2015,06,22,07,06,12.40
2015,06,22,07,07,12.50
2015,06,22,07,08,12.70
2015,06,22,07,09,12.80
2015,06,22,07,10,12.90
2015,06,22,07,11,12.90
2015,06,22,07,12,13.00
2015,06,22,07,13,13.00
2015,06,22,07,14,13.10
2015,06,22,07,15,13.20
2015,06,22,07,16,13.20
2015,06,22,07,17,13.30
2015,06,22,07,18,13.30
2015,06,22,07,19,13.40
2015,06,22,07,20,13.50
2015,06,22,07,21,13.60
2015,06,22,07,22,13.70
2015,06,22,07,23,13.80
2015,06,22,07,24,13.90
2015,06,22,07,25,14.10
2015,06,22,07,26,14.30
2015,06,22,07,27,14.40
2015,06,22,07,28,14.60
2015,06,22,07,29,14.90
2015,06,22,07,30,15.00
2015,06,22,07,31,15.10
2015,06,22,07,32,15.30
2015,06,22,07,33,15.50
2015,06,22,07,34,15.60
2015,06,22,07,35,15.80
2015,06,22,07,36,15.90
2015,06,22,07,37,16.00
2015,06,22,07,38,16.20
2015,06,22,07,39,16.30
2015,06,22,07,40,16.40
2015,06,22,07,41,16.60
2015,06,22,07,42,16.70
2015,06,22,07,43,16.80
2015,06,22,07,44,16.90
2015,06,22,07,45,17.00
2015,06,22,07,46,17.10
2015,06,22,07,47,17.20
2015,06,22,07,48,17.20
2015,06,22,07,49,17.30
2015,06,22,07,50,17.40
2015,06,22,07,51,17.40
2015,06,22,07,52,17.50
2015,06,22,07,53,17.50
2015,06,22,07,54,17.60
2015,06,22,07,55,17.60
2015,06,22,07,56,17.60
2015,06,22,07,57,17.70
2015,06,22,07,58,17.70
2015,06,22,07,59,17.80
2015,06,22,08,00,17.80
2015,06,22,08,01,17.80
2015,06,22,08,02,17.90
2015,06,22,08,03,18.00
2015,06,22,08,04,18.00
2015,06,22,08,05,18.10
2015,06,22,08,06,18.10
2015,06,22,08,07,18.20
2015,06,22,08,08,18.20
2015,06,22,08,09,18.30
2015,06,22,08,10,18.30
2015,06,22,08,11,18.40
2015,06,22,08,12,18.40
2015,06,22,08,13,18.50
2015,06,22,08,14,18.60
2015,06,22,08,15,18.60
2015,06,22,08,16,18.70
2015,06,22,08,17,18.80
2015,06,22,08,18,18.90
2015,06,22,08,19,18.90
2015,06,22,08,20,19.00
2015,06,22,08,21,19.10
2015,06,22,08,22,19.10
2015,06,22,08,23,19.00
2015,06,22,08,24,19.00
2015,06,22,08,25,19.00
2015,06,22,08,26,18.90
2015,06,22,08,27,18.90
2015,06,22,08,28,18.90
2015,06,22,08,29,18.80
2015,06,22,08,30,18.80
2015,06,22,08,31,18.90
2015,06,22,08,32,18.90
2015,06,22,08,33,19.00
2015,06,22,08,34,19.00
2015,06,22,08,35,19.10
2015,06,22,08,36,19.20
2015,06,22,08,37,19.20
2015,06,22,08,38,19.30
2015,06,22,08,39,19.40
2015,06,22,08,40,19.40
2015,06,22,08,41,19.50
2015,06,22,08,42,19.50
2015,06,22,08,43,19.60
2015,06,22,08,44,19.50
2015,06,22,08,45,19.50
2015,06,22,08,46,19.40
2015,06,22,08,47,19.40
2015,06,22,08,48,19.40
2015,06,22,08,49,19.40
2015,06,22,08,50,19.50
2015,06,22,08,51,19.50
2015,06,22,08,52,19.60
2015,06,22,08,53,19.50
2015,06,22,08,54,19.50
2015,06,22,08,55,19.60
2015,06,22,08,56,19.60
2015,06,22,08,57,19.70
2015,06,22,08,58,19.80
2015,06,22,08,59,19.90
2015,06,22,09,00,20.00
2015,06,22,09,01,20.10
2015,06,22,09,02,20.10
2015,06,22,09,03,20.20
2015,06,22,09,04,20.20
2015,06,22,09,05,20.30
2015,06,22,09,06,20.30
2015,06,22,09,07,20.40
2015,06,22,09,08,20.40
2015,06,22,09,09,20.40
2015,06,22,09,10,20.40
2015,06,22,09,11,20.40
2015,06,22,09,12,20.40
2015,06,22,09,13,20.40
2015,06,22,09,14,20.50
2015,06,22,09,15,20.50
2015,06,22,09,16,20.60
2015,06,22,09,17,20.60
2015,06,22,09,18,20.60
2015,06,22,09,19,20.60
2015,06,22,09,20,20.70
2015,06,22,09,21,20.70
2015,06,22,09,22,20.70
2015,06,22,09,23,20.60
2015,06,22,09,24,20.60
2015,06,22,09,25,20.60
2015,06,22,09,26,20.60
2015,06,22,09,27,20.50
2015,06,22,09,28,20.50
2015,06,22,09,29,20.50
2015,06,22,09,30,20.60
2015,06,22,09,31,20.60
2015,06,22,09,32,20.70
2015,06,22,09,33,20.60
2015,06,22,09,34,20.60
2015,06,22,09,35,20.60
2015,06,22,09,36,20.60
2015,06,22,09,37,20.70
2015,06,22,09,38,20.60
2015,06,22,09,39,20.60
2015,06,22,09,40,20.60
2015,06,22,09,41,20.60
2015,06,22,09,42,20.60
2015,06,22,09,43,20.60
2015,06,22,09,44,20.50
2015,06,22,09,45,20.50
2015,06,22,09,46,20.40
2015,06,22,09,47,20.50
2015,06,22,09,48,20.50
2015,06,22,09,49,20.60
2015,06,22,09,50,20.60
2015,06,22,09,51,20.60
2015,06,22,09,52,20.70
2015,06,22,09,53,20.70
2015,06,22,09,54,20.60
2015,06,22,09,55,20.60
2015,06,22,09,56,20.60
2015,06,22,09,57,20.50
2015,06,22,09,58,20.50
2015,06,22,09,59,20.40
2015,06,22,10,00,20.50
2015,06,22,10,01,20.50
2015,06,22,10,02,20.40
2015,06,22,10,03,20.40
2015,06,22,10,04,20.40
2015,06,22,10,05,20.40
2015,06,22,10,06,20.50
2015,06,22,10,07,20.50
2015,06,22,10,08,20.60
2015,06,22,10,09,20.60
2015,06,22,10,10,20.70
2015,06,22,10,11,20.60
2015,06,22,10,12,20.60
2015,06,22,10,13,20.70
2015,06,22,10,14,20.70
2015,06,22,10,15,20.80
2015,06,22,10,16,20.80
2015,06,22,10,17,20.90
2015,06,22,10,18,21.00
2015,06,22,10,19,21.00
2015,06,22,10,20,21.00
2015,06,22,10,21,20.90
2015,06,22,10,22,20.90
2015,06,22,10,23,20.90
2015,06,22,10,24,20.90
2015,06,22,10,25,20.80
2015,06,22,10,26,20.80
2015,06,22,10,27,20.80
2015,06,22,10,28,20.80
2015,06,22,10,29,20.80
2015,06,22,10,30,20.80
2015,06,22,10,31,20.80
2015,06,22,10,32,20.80
2015,06,22,10,33,20.70
2015,06,22,10,34,20.80
2015,06,22,10,35,20.80
2015,06,22,10,36,20.70
2015,06,22,10,37,20.80
2015,06,22,10,38,20.80
2015,06,22,10,39,20.80
2015,06,22,10,40,20.80
2015,06,22,10,41,20.80
2015,06,22,10,42,20.80
2015,06,22,10,43,20.80
2015,06,22,10,44,20.80
2015,06,22,10,45,20.90
2015,06,22,10,46,20.90
2015,06,22,10,47,20.90
2015,06,22,10,48,20.90
2015,06,22,10,49,20.80
2015,06,22,10,50,20.80
2015,06,22,10,51,20.90
2015,06,22,10,52,21.00
2015,06,22,10,53,21.10
2015,06,22,10,54,21.20
2015,06,22,10,55,21.30
2015,06,22,10,56,21.30
2015,06,22,10,57,21.40
2015,06,22,10,58,21.40
2015,06,22,10,59,21.40
2015,06,22,11,00,21.50
2015,06,22,11,01,21.50
2015,06,22,11,02,21.50
2015,06,22,11,03,21.50
2015,06,22,11,04,21.50
2015,06,22,11,05,21.40
2015,06,22,11,06,21.40
2015,06,22,11,07,21.50
2015,06,22,11,08,21.50
2015,06,22,11,09,21.50
2015,06,22,11,10,21.60
2015,06,22,11,11,21.60
2015,06,22,11,12,21.50
2015,06,22,11,13,21.40
2015,06,22,11,14,21.40
2015,06,22,11,15,21.30
2015,06,22,11,16,21.30
2015,06,22,11,17,21.40
2015,06,22,11,18,21.40
2015,06,22,11,19,21.50
2015,06,22,11,20,21.60
2015,06,22,11,21,21.50
2015,06,22,11,22,21.50
2015,06,22,11,23,21.60
2015,06,22,11,24,21.60
2015,06,22,11,25,21.50
2015,06,22,11,26,21.50
2015,06,22,11,27,21.40
2015,06,22,11,28,21.50
2015,06,22,11,29,21.50
2015,06,22,11,30,21.50
2015,06,22,11,31,21.60
2015,06,22,11,32,21.60
2015,06,22,11,33,21.60
2015,06,22,11,34,21.70
2015,06,22,11,35,21.80
2015,06,22,11,36,21.80
2015,06,22,11,37,21.90
2015,06,22,11,38,22.00
2015,06,22,11,39,22.00
2015,06,22,11,40,22.10
2015,06,22,11,41,22.20
2015,06,22,11,42,22.30
2015,06,22,11,43,22.30
2015,06,22,11,44,22.40
2015,06,22,11,45,22.40
2015,06,22,11,46,22.40
2015,06,22,11,47,22.40
2015,06,22,11,48,22.40
2015,06,22,11,49,22.40
2015,06,22,11,50,22.40
2015,06,22,11,51,22.40
2015,06,22,11,52,22.40
2015,06,22,11,53,22.40
2015,06,22,11,54,22.50
2015,06,22,11,55,22.30
2015,06,22,11,56,22.20
2015,06,22,11,57,22.20
2015,06,22,11,58,22.20
2015,06,22,11,59,22.30
2015,06,22,12,00,22.30
2015,06,22,12,01,22.30
2015,06,22,12,02,22.30
2015,06,22,12,03,22.20
2015,06,22,12,04,22.10
2015,06,22,12,05,22.20
2015,06,22,12,06,22.20
2015,06,22,12,07,22.40
2015,06,22,12,08,22.60
2015,06,22,12,09,22.70
2015,06,22,12,10,22.90
2015,06,22,12,11,22.90
2015,06,22,12,12,22.90
2015,06,22,12,13,22.90
2015,06,22,12,14,23.00
2015,06,22,12,15,23.20
2015,06,22,12,16,23.30
2015,06,22,12,17,23.20
2015,06,22,12,18,23.20
2015,06,22,12,19,23.10
2015,06,22,12,20,22.90
2015,06,22,12,21,22.80
2015,06,22,12,22,22.70
2015,06,22,12,23,22.70
2015,06,22,12,24,22.70
2015,06,22,12,25,22.70
2015,06,22,12,26,22.60
2015,06,22,12,27,22.50
2015,06,22,12,28,22.40
2015,06,22,12,29,22.40
2015,06,22,12,30,22.20
2015,06,22,12,31,22.00
2015,06,22,12,32,21.80
2015,06,22,12,33,21.70
2015,06,22,12,34,21.60
2015,06,22,12,35,21.60
2015,06,22,12,36,21.70
2015,06,22,12,37,21.70
2015,06,22,12,38,21.80
2015,06,22,12,39,21.70
2015,06,22,12,40,21.70
2015,06,22,12,41,21.50
2015,06,22,12,42,21.40
2015,06,22,12,43,21.30
2015,06,22,12,44,21.30
2015,06,22,12,45,21.30
2015,06,22,12,46,21.30
2015,06,22,12,47,21.30
2015,06,22,12,48,21.30
2015,06,22,12,49,21.30
2015,06,22,12,50,21.30
2015,06,22,12,51,21.30
2015,06,22,12,52,21.30
2015,06,22,12,53,21.40
2015,06,22,12,54,21.50
2015,06,22,12,55,21.60
2015,06,22,12,56,21.60
2015,06,22,12,57,21.70
2015,06,22,12,58,21.70
2015,06,22,12,59,21.70
2015,06,22,13,00,21.60
2015,06,22,13,01,21.60
2015,06,22,13,02,21.60
2015,06,22,13,03,21.60
2015,06,22,13,04,21.50
2015,06,22,13,05,21.40
2015,06,22,13,06,21.30
2015,06,22,13,07,21.30
2015,06,22,13,08,21.20
2015,06,22,13,09,21.20
2015,06,22,13,10,21.20
2015,06,22,13,11,21.20
2015,06,22,13,12,21.30
2015,06,22,13,13,21.30
2015,06,22,13,14,21.30
2015,06,22,13,15,21.30
2015,06,22,13,16,21.40
2015,06,22,13,17,21.50
2015,06,22,13,18,21.60
2015,06,22,13,19,21.70
2015,06,22,13,20,21.80
2015,06,22,13,21,21.80
2015,06,22,13,22,21.80
2015,06,22,13,23,21.70
2015,06,22,13,24,21.60
2015,06,22,13,25,21.60
2015,06,22,13,26,21.60
2015,06,22,13,27,21.50
2015,06,22,13,28,21.50
2015,06,22,13,29,21.50
2015,06,22,13,30,21.50
2015,06,22,13,31,21.50
2015,06,22,13,32,21.50
2015,06,22,13,33,21.50
2015,06,22,13,34,21.50
2015,06,22,13,35,21.50
2015,06,22,13,36,21.60
2015,06,22,13,37,21.60
2015,06,22,13,38,21.60
2015,06,22,13,39,21.70
2015,06,22,13,40,21.80
2015,06,22,13,41,21.80
2015,06,22,13,42,21.80
2015,06,22,13,43,21.70
2015,06,22,13,44,21.50
2015,06,22,13,45,21.40
2015,06,22,13,46,21.30
2015,06,22,13,47,21.30
2015,06,22,13,48,21.30
2015,06,22,13,49,21.40
2015,06,22,13,50,21.40
2015,06,22,13,51,21.40
2015,06,22,13,52,21.40
2015,06,22,13,53,21.40
2015,06,22,13,54,21.50
2015,06,22,13,55,21.60
2015,06,22,13,56,21.70
2015,06,22,13,57,21.80
2015,06,22,13,58,21.80
2015,06,22,13,59,21.90
2015,06,22,14,00,21.90
2015,06,22,14,01,21.90
2015,06,22,14,02,22.00
2015,06,22,14,03,22.00
2015,06,22,14,04,22.00
2015,06,22,14,05,21.90
2015,06,22,14,06,21.90
2015,06,22,14,07,22.00
2015,06,22,14,08,22.00
2015,06,22,14,09,22.10
2015,06,22,14,10,22.10
2015,06,22,14,11,22.10
2015,06,22,14,12,22.10
2015,06,22,14,13,22.10
2015,06,22,14,14,22.10
2015,06,22,14,15,22.00
2015,06,22,14,16,22.00
2015,06,22,14,17,22.00
2015,06,22,14,18,22.00
2015,06,22,14,19,22.00
2015,06,22,14,20,22.10
2015,06,22,14,21,22.10
2015,06,22,14,22,22.20
2015,06,22,14,23,22.30
2015,06,22,14,24,22.30
2015,06,22,14,25,22.40
2015,06,22,14,26,22.50
2015,06,22,14,27,22.50
2015,06,22,14,28,22.40
2015,06,22,14,29,22.40
2015,06,22,14,30,22.40
2015,06,22,14,31,22.40
2015,06,22,14,32,22.30
2015,06,22,14,33,22.30
2015,06,22,14,34,22.30
2015,06,22,14,35,22.20
2015,06,22,14,36,22.30
2015,06,22,14,37,22.30
2015,06,22,14,38,22.40
2015,06,22,14,39,22.50
2015,06,22,14,40,22.50
2015,06,22,14,41,22.50
2015,06,22,14,42,22.60
2015,06,22,14,43,22.70
2015,06,22,14,44,22.80
2015,06,22,14,45,22.80
2015,06,22,14,46,22.90
2015,06,22,14,47,22.90
2015,06,22,14,48,23.00
2015,06,22,14,49,23.10
2015,06,22,14,50,23.10
2015,06,22,14,51,23.00
2015,06,22,14,52,23.10
2015,06,22,14,53,23.10
2015,06,22,14,54,23.10
2015,06,22,14,55,23.10
2015,06,22,14,56,23.00
2015,06,22,14,57,22.90
2015,06,22,14,58,22.90
2015,06,22,14,59,23.00
2015,06,22,15,00,23.10
2015,06,22,15,01,23.20
2015,06,22,15,02,23.20
2015,06,22,15,03,23.40
2015,06,22,15,04,23.50
2015,06,22,15,05,23.60
2015,06,22,15,06,23.60
2015,06,22,15,07,23.60
2015,06,22,15,08,23.60
2015,06,22,15,09,23.60
2015,06,22,15,10,23.50
2015,06,22,15,11,23.50
2015,06,22,15,12,23.50
2015,06,22,15,13,23.60
2015,06,22,15,14,23.60
2015,06,22,15,15,23.60
2015,06,22,15,16,23.70
2015,06,22,15,17,23.70
2015,06,22,15,18,23.80
2015,06,22,15,19,23.80
2015,06,22,15,20,23.60
2015,06,22,15,21,23.50
2015,06,22,15,22,23.30
2015,06,22,15,23,23.30
2015,06,22,15,24,23.40
2015,06,22,15,25,23.50
2015,06,22,15,26,23.60
2015,06,22,15,27,23.60
2015,06,22,15,28,23.60
2015,06,22,15,29,23.60
2015,06,22,15,30,23.60
2015,06,22,15,31,23.70
2015,06,22,15,32,23.80
2015,06,22,15,33,23.90
2015,06,22,15,34,24.10
2015,06,22,15,35,24.30
2015,06,22,15,36,24.40
2015,06,22,15,37,24.50
2015,06,22,15,38,24.50
2015,06,22,15,39,24.40
2015,06,22,15,40,24.20
2015,06,22,15,41,24.00
2015,06,22,15,42,23.80
2015,06,22,15,43,23.60
2015,06,22,15,44,23.50
2015,06,22,15,45,23.50
2015,06,22,15,46,23.50
2015,06,22,15,47,23.60
2015,06,22,15,48,23.70
2015,06,22,15,49,23.90
2015,06,22,15,50,24.00
2015,06,22,15,51,24.20
2015,06,22,15,52,24.30
2015,06,22,15,53,24.40
2015,06,22,15,54,24.50
2015,06,22,15,55,24.40
2015,06,22,15,56,24.30
2015,06,22,15,57,24.10
2015,06,22,15,58,24.00
2015,06,22,15,59,24.00
2015,06,22,16,00,23.90
2015,06,22,16,01,23.90
2015,06,22,16,02,23.80
2015,06,22,16,03,23.80
2015,06,22,16,04,23.90
2015,06,22,16,05,23.90
2015,06,22,16,06,23.80
2015,06,22,16,07,23.80
2015,06,22,16,08,23.80
2015,06,22,16,09,23.80
2015,06,22,16,10,23.80
2015,06,22,16,11,23.80
2015,06,22,16,12,23.80
2015,06,22,16,13,23.70
2015,06,22,16,14,23.60
2015,06,22,16,15,23.50
2015,06,22,16,16,23.60
2015,06,22,16,17,23.60
2015,06,22,16,18,23.60
2015,06,22,16,19,23.60
2015,06,22,16,20,23.60
2015,06,22,16,21,23.70
2015,06,22,16,22,23.70
2015,06,22,16,23,23.70
2015,06,22,16,24,23.70
2015,06,22,16,25,23.60
2015,06,22,16,26,23.60
2015,06,22,16,27,23.60
2015,06,22,16,28,23.60
2015,06,22,16,29,23.60
2015,06,22,16,30,23.60
2015,06,22,16,31,23.60
2015,06,22,16,32,23.60
2015,06,22,16,33,23.70
2015,06,22,16,34,23.80
2015,06,22,16,35,23.90
2015,06,22,16,36,23.90
2015,06,22,16,37,24.00
2015,06,22,16,38,24.00
2015,06,22,16,39,24.00
2015,06,22,16,40,23.90
2015,06,22,16,41,23.90
2015,06,22,16,42,23.90
2015,06,22,16,43,23.90
2015,06,22,16,44,23.90
2015,06,22,16,45,23.90
2015,06,22,16,46,23.90
2015,06,22,16,47,23.80
2015,06,22,16,48,23.80
2015,06,22,16,49,23.70
2015,06,22,16,50,23.70
2015,06,22,16,51,23.80
2015,06,22,16,52,23.70
2015,06,22,16,53,23.50
2015,06,22,16,54,23.50
2015,06,22,16,55,23.40
2015,06,22,16,56,23.40
2015,06,22,16,57,23.30
2015,06,22,16,58,23.20
2015,06,22,16,59,23.10
2015,06,22,17,00,23.00
2015,06,22,17,01,22.90
2015,06,22,17,02,22.70
2015,06,22,17,03,22.60
2015,06,22,17,04,22.50
2015,06,22,17,05,22.50
2015,06,22,17,06,22.40
2015,06,22,17,07,22.40
2015,06,22,17,08,22.30
2015,06,22,17,09,22.30
2015,06,22,17,10,22.40
2015,06,22,17,11,22.40
2015,06,22,17,12,22.40
2015,06,22,17,13,22.40
2015,06,22,17,14,22.50
2015,06,22,17,15,22.50
2015,06,22,17,16,22.60
2015,06,22,17,17,22.60
2015,06,22,17,18,22.60
2015,06,22,17,19,22.60
2015,06,22,17,20,22.60
2015,06,22,17,21,22.70
2015,06,22,17,22,22.70